Date String (YYYY-MM-DD hh:mm:ss) UTC,Instrument flags,absolute air pressure of the measurement (hPa),sample flow rate (lpm),inlet stack bypass flow (lpm),air temperature of the measurement (°C),ambient temperature measured by the external sensor (°C),aerosol sample conditioner tube jacket temperature (°C),OPC LED temperature (°C),internal box temperature (°C),relative humidity of the measurement (%),span deviation,mass concentration of particles derived from Lorenz-Mie calculation of OPC scattering (μg/m³),mass concentration of particles derived from Lorenz-Mie calculation of OPC scattering (μg/m³),mass concentration of particles derived from Lorenz-Mie calculation of OPC scattering (μg/m³)
DateTimeUTC,F1_M11,P_M11,Q1_M11,Q2_M11,T1_M11,T2_M11,T3_M11,T4_M11,T5_M11,U1_M11,ZSPAN_M11,X2_M11,X0_M11,X1_M11
2023-08-29 08:00:00,SystemResetWarning,0838.7,4.99,000.00,028.7,027.5,000.0,037.2,030.3,32.0,0000.0,0002.95,0005.67,0002.39
2023-08-29 08:01:00,SystemResetWarning,0838.7,5.00,000.00,028.7,027.6,000.0,037.2,030.3,32.0,0000.0,0002.90,0005.60,0002.35
2023-08-29 08:02:00,SystemResetWarning,0838.7,5.01,000.00,028.7,027.6,000.0,037.2,030.3,32.0,0000.0,0002.94,0005.71,0002.35
2023-08-29 08:03:00,SystemResetWarning,0838.7,5.01,000.00,028.7,027.6,000.0,037.2,030.3,32.0,0000.0,0002.97,0005.74,0002.37
2023-08-29 08:04:00,SystemResetWarning,0838.7,5.00,000.00,028.7,027.6,000.0,037.2,030.3,31.9,0000.0,0002.92,0004.96,0002.35
2023-08-29 08:05:00,SystemResetWarning,0838.7,5.00,000.00,028.7,027.6,000.0,037.3,030.4,31.9,0000.0,0002.91,0004.64,0002.34
2023-08-29 08:06:00,SystemResetWarning,0838.7,5.00,000.00,028.8,027.7,000.0,037.3,030.4,31.8,0000.0,0002.90,0004.78,0002.33
2023-08-29 08:07:00,SystemResetWarning,0838.7,4.99,000.00,028.8,026.9,000.0,037.2,030.3,31.8,0000.0,0002.90,0005.00,0002.32
2023-08-29 08:08:00,SystemResetWarning,0838.7,4.99,000.00,028.7,025.0,000.0,037.1,030.0,31.8,0000.0,0002.90,0004.93,0002.29
2023-08-29 08:09:00,SystemResetWarning,0838.7,5.01,000.00,028.6,024.2,000.0,037.0,029.8,32.1,0000.0,0002.91,0004.78,0002.29
2023-08-29 08:10:00,SystemResetWarning,0838.7,5.02,000.00,028.5,024.3,000.0,037.0,029.5,32.3,0000.0,0002.88,0005.68,0002.28
2023-08-29 08:11:00,SystemResetWarning,0838.8,5.00,000.00,028.4,024.7,000.0,037.0,029.5,32.6,0000.0,0002.82,0005.50,0002.28
2023-08-29 08:12:00,SystemResetWarning,0838.7,4.99,000.00,028.3,025.1,000.0,037.0,029.6,32.7,0000.0,0002.84,0005.62,0002.30
2023-08-29 08:13:00,SystemResetWarning,0838.7,5.00,000.00,028.3,025.5,000.0,037.0,029.7,33.0,0000.0,0002.85,0005.71,0002.30
2023-08-29 08:14:00,SystemResetWarning,0838.7,5.01,000.00,028.3,025.8,000.0,037.0,029.8,33.3,0000.0,0002.84,0005.70,0002.32
2023-08-29 08:15:00,SystemResetWarning,0838.7,5.00,000.00,028.3,026.1,000.0,037.0,029.8,33.6,0000.0,0002.92,0005.82,0002.35
2023-08-29 08:16:00,SystemResetWarning,0838.7,5.00,000.00,028.3,026.3,000.0,037.0,029.8,33.6,0000.0,0002.92,0005.70,0002.38
2023-08-29 08:17:00,SystemResetWarning,0838.8,5.00,000.00,028.3,026.5,000.0,037.0,029.9,33.9,0000.0,0002.94,0005.57,0002.41
2023-08-29 08:18:00,SystemResetWarning,0838.8,5.00,000.00,028.3,026.7,000.0,037.0,029.9,33.9,0000.0,0002.99,0005.67,0002.43
2023-08-29 08:19:00,SystemResetWarning,0838.8,4.99,000.00,028.3,026.8,000.0,037.0,029.9,34.0,0000.0,0002.98,0005.99,0002.43
2023-08-29 08:20:00,SystemResetWarning,0838.7,5.00,000.00,028.4,026.9,000.0,037.0,030.0,34.2,0000.0,0002.98,0006.37,0002.44
2023-08-29 08:21:00,SystemResetWarning,0838.8,5.00,000.00,028.4,027.0,000.0,037.0,030.0,34.2,0000.0,0003.02,0005.98,0002.46
2023-08-29 08:22:00,SystemResetWarning,0838.7,5.00,000.00,028.4,027.1,000.0,037.0,030.0,34.4,0000.0,0003.02,0006.38,0002.46
2023-08-29 08:23:00,SystemResetWarning,0838.7,5.00,000.00,028.4,027.1,000.0,037.0,030.0,34.1,0000.0,0003.02,0007.31,0002.47
2023-08-29 08:24:00,SystemResetWarning,0838.8,5.00,000.00,028.4,027.2,000.0,037.0,030.0,33.8,0000.0,0002.99,0007.14,0002.47
2023-08-29 08:25:00,SystemResetWarning,0838.7,4.99,000.00,028.4,027.2,000.0,037.0,030.1,33.6,0000.0,0002.98,0007.06,0002.46
2023-08-29 08:26:00,SystemResetWarning,0838.7,4.99,000.00,028.5,027.2,000.0,037.0,030.1,33.5,0000.0,0002.92,0007.07,0002.46
2023-08-29 08:27:00,SystemResetWarning,0838.8,4.99,000.00,028.5,027.3,000.0,037.0,030.1,33.5,0000.0,0002.93,0007.32,0002.45
2023-08-29 08:28:00,SystemResetWarning,0838.8,5.00,000.00,028.5,027.3,000.0,037.0,030.1,33.4,0000.0,0002.97,0007.36,0002.45
2023-08-29 08:29:00,SystemResetWarning,0838.8,5.01,000.00,028.5,027.3,000.0,037.1,030.1,33.3,0000.0,0002.98,0007.34,0002.45
2023-08-29 08:30:00,SystemResetWarning,0838.7,5.00,000.00,028.5,027.3,000.0,037.1,030.1,33.2,0000.0,0003.06,0007.15,0002.47
2023-08-29 08:31:00,SystemResetWarning,0838.8,5.00,000.00,028.5,027.3,000.0,037.1,030.1,33.2,0000.0,0003.08,0007.14,0002.48
2023-08-29 08:32:00,SystemResetWarning,0838.8,4.99,000.00,028.6,027.3,000.0,037.1,030.2,33.2,0000.0,0003.12,0006.22,0002.49
2023-08-29 08:33:00,SystemResetWarning,0838.8,4.99,000.00,028.6,027.4,000.0,037.1,030.2,33.1,0000.0,0003.17,0006.38,0002.52
2023-08-29 08:34:00,SystemResetWarning,0838.8,5.00,000.00,028.6,027.4,000.0,037.1,030.2,33.0,0000.0,0003.23,0005.27,0002.53
2023-08-29 08:35:00,SystemResetWarning,0838.8,5.01,000.00,028.6,027.4,000.0,037.1,030.2,32.9,0000.0,0003.26,0005.45,0002.54
2023-08-29 08:36:00,SystemResetWarning,0838.8,5.01,000.00,028.6,027.4,000.0,037.2,030.2,32.8,0000.0,0003.25,0005.59,0002.54
2023-08-29 08:37:00,SystemResetWarning,0838.8,5.00,000.00,028.6,027.4,000.0,037.2,030.2,32.8,0000.0,0003.28,0005.87,0002.55
2023-08-29 08:38:00,SystemResetWarning,0838.8,4.99,000.00,028.6,027.4,000.0,037.2,030.2,32.8,0000.0,0003.28,0005.59,0002.56
2023-08-29 08:39:00,SystemResetWarning,0838.8,4.99,000.00,028.7,027.4,000.0,037.2,030.2,32.7,0000.0,0003.29,0005.68,0002.56
2023-08-29 08:40:00,SystemResetWarning,0838.8,5.01,000.00,028.7,027.4,000.0,037.2,030.2,32.8,0000.0,0003.29,0005.76,0002.57
2023-08-29 08:41:00,SystemResetWarning,0838.8,5.01,000.00,028.7,027.4,000.0,037.2,030.2,32.8,0000.0,0003.26,0005.60,0002.56
2023-08-29 08:42:00,SystemResetWarning,0838.9,5.00,000.00,028.7,027.4,000.0,037.2,030.3,32.9,0000.0,0003.27,0005.61,0002.56
2023-08-29 08:43:00,SystemResetWarning,0838.9,5.00,000.00,028.7,027.4,000.0,037.2,030.3,33.0,0000.0,0003.26,0005.62,0002.58
2023-08-29 08:44:00,SystemResetWarning,0838.9,4.99,000.00,028.7,027.4,000.0,037.2,030.3,33.0,0000.0,0003.24,0005.51,0002.57
2023-08-29 08:45:00,SystemResetWarning,0838.9,5.00,000.00,028.7,027.4,000.0,037.3,030.3,32.8,0000.0,0003.20,0005.28,0002.57
2023-08-29 08:46:00,SystemResetWarning,0838.9,4.99,000.00,028.7,027.4,000.0,037.3,030.3,32.7,0000.0,0003.19,0005.68,0002.57
2023-08-29 08:47:00,SystemResetWarning,0838.8,5.00,000.00,028.7,027.4,000.0,037.3,030.3,32.6,0000.0,0003.20,0005.95,0002.58
2023-08-29 08:48:00,SystemResetWarning,0838.9,5.01,000.00,028.7,027.5,000.0,037.3,030.3,32.5,0000.0,0003.22,0005.82,0002.58
2023-08-29 08:49:00,SystemResetWarning,0838.9,5.01,000.00,028.8,027.5,000.0,037.3,030.3,32.5,0000.0,0003.22,0005.80,0002.60
2023-08-29 08:50:00,SystemResetWarning,0838.9,5.00,000.00,028.8,027.5,000.0,037.3,030.3,32.5,0000.0,0003.23,0005.88,0002.62
2023-08-29 08:51:00,SystemResetWarning,0838.9,5.01,000.00,028.8,027.5,000.0,037.3,030.3,32.4,0000.0,0003.22,0005.79,0002.63
2023-08-29 08:52:00,SystemResetWarning,0838.8,4.99,000.00,028.8,027.5,000.0,037.3,030.3,32.3,0000.0,0003.21,0005.74,0002.63
2023-08-29 08:53:00,SystemResetWarning,0838.9,4.99,000.00,028.8,027.5,000.0,037.3,030.3,32.3,0000.0,0003.22,0005.80,0002.66
2023-08-29 08:54:00,SystemResetWarning,0838.9,5.00,000.00,028.8,027.5,000.0,037.3,030.4,32.2,0000.0,0003.22,0006.33,0002.66
2023-08-29 08:55:00,SystemResetWarning,0838.9,5.01,000.00,028.8,027.5,000.0,037.4,030.4,32.1,0000.0,0003.23,0006.36,0002.67
2023-08-29 08:56:00,SystemResetWarning,0838.9,5.01,000.00,028.8,027.5,000.0,037.4,030.4,32.2,0000.0,0003.21,0006.36,0002.67
2023-08-29 08:57:00,SystemResetWarning,0839.0,5.00,000.00,028.8,027.5,000.0,037.4,030.4,32.3,0000.0,0003.21,0006.26,0002.69
2023-08-29 08:58:00,SystemResetWarning,0839.1,4.99,000.00,028.8,027.5,000.0,037.4,030.4,32.3,0000.0,0003.25,0005.79,0002.72
2023-08-29 08:59:00,SystemResetWarning,0839.0,4.99,000.00,028.8,027.5,000.0,037.4,030.4,32.2,0000.0,0003.27,0005.94,0002.75
